COSMOS 1275 DEB

Satellite information

Favourite Embed

Satellite Type and Status

DEBRISIN ORBIT

Key statistics

Satellite COSMOS 1275 DEB at a glance.

Uptime

16162

Days in orbit

Revolutions

≈ 13.7

Per day

Orbit

LEO

Low Earth Orbit

Inclination

82.9

Latest

Satellite identification and parameters

Extended collection of information and parameters for COSMOS 1275 DEB.

Object identification

Identified? True

Debris? True

Object name: COSMOS 1275 DEB

International designator: 1981-053DQ

Object number (NORAD): 12771

Object ID (CCSDS): 12771

Country: COMMONWEALTH OF INDEPENDENT STATES (CIS)

Current information (Y/N): Y

RCS size: SMALL

Orbital parameters

Period: 105.239 minutes

Inclination: 82.871 deg

SMA: 7383.749 km

Apoapsis: 1118.305 km

Periapsis: 892.924 km

RAAN: 340.1726 deg

Eccentricy: 0.01526194

Argument of periapsis: 222.101 deg

Mean anomaly: 160.6006 deg

Mean motion: 13.6831894 rev/day

Mean motion (dot): 0.00001962 rev/day2

B* drag term: 0.0021041314 1/REarth

Two-line elements (TLE)

Creation date: Sept. 2, 2025, 11:42 p.m.

Reference frame: TEME

Reference center: EARTH

Epoch: Sept. 2, 2025, 12:53 p.m. UTC

TLE line 0: 0 COSMOS 1275 DEB

TLE line 1: 1 12771U 81053DQ 25245.53698876 .00001962 00000-0 21041-2 0 9993

TLE line 2: 2 12771 82.8710 340.1726 0152619 222.1010 160.6006 13.68318940180710

Live tracking on map

Real-time ground track for satellite COSMOS 1275 DEB.

In-orbit conjunctions

A list of the most updated potential collisions computed for object COSMOS 1275 DEB.

Target Orbit TCA Probability of collision Miss distance Type
METEOR 2-12 DEB LEO 2025-07-28 06:06:28 0.0001029455 189.0 (m) DEBRIS
COSMOS 1860 FUEL CORE LEO 2024-11-12 11:44:48 0.0005231767 819.0 (m) PAYLOAD

Associated space launch

Navigation satellite providing location information for the Tsiklon-B navigation system

COSMOS 1275 DEB was lifted into orbit during the mission ‘Kosmos-3M | Parus 27’, on board a Kosmos-3M space rocket.

The launch took place on June 4, 1981, 3:41 p.m. from 132/2.

For more information about the launch, click the button.

Launch to space Kosmos-3M | Parus 27
Kosmos-3M | Parus 27

Agency: N/A

Status: Launch Successful

Launch date: June 4, 1981, 3:41 p.m. UTC

Rocket: Kosmos-3M

Launch pad: 132/2

Location: Plesetsk Cosmodrome, Russian Federation

...

Latest news about this satellite

There are no fresh news available about this satellite. Check back as we update our databases every day.


Newsletter sign-up

Weekly statistics, charts and insights to help you stay on top of the space industry.